McConnell AFB, KS

6:59 AM CST on November 18, 2017 (GMT -0600)
McConnell Air Force Base

Weather History for KIAB - September, 2013

Change the Weather History Date:

Friday, September 20, 2013

  Actual Average Record
Temperature  
Mean Temperature 66 °F -  
Max Temperature 74 °F 77 °F 93 °F (1998)
Min Temperature 59 °F 57 °F 46 °F (2003)
Cooling Degree Days 1    
Growing Degree Days 16 (Base 50)    
Moisture  
Dew Point 54 °F    
Average Humidity 64    
Maximum Humidity 100    
Minimum Humidity 41    
Precipitation  
Precipitation 0.00 in - - ()
Sea Level Pressure  
Sea Level Pressure 30.04 in    
Wind  
Wind Speed 10 mph (NNE)    
Max Wind Speed 18 mph    
Max Gust Speed 24 mph    
Visibility 7 miles    
Events Rain    
Averages and records for this station are not official NWS values.
T = Trace of Precipitation, MM = Missing Value Source: NWS Daily Summary

Daily Weather History Graph

Daily Weather History Graph

Search for Another Location

Airport or City:

Trip Planner

Search our weather history database for the weather conditions in past years. The results will help you decide how hot, cold, wet, or windy it might be!

Date:

Astronomy

Sep. 20, 2013 Rise Set
Actual Time 7:15 AM CDT 7:28 PM CDT
Civil Twilight 6:49 AM CDT 7:54 PM CDT
Nautical Twilight 6:18 AM CDT 8:25 PM CDT
Astronomical Twilight 5:47 AM CDT 8:56 PM CDT
Moon 8:06 PM CDT (9/20) 8:29 AM CDT (9/20)
Length of Visible Light 13h 05m
Length of Day
12h 13m
Full, 98% of the Moon is Illuminated
Sep 20
Full
Sep 26
Last Quarter
Oct 4
New
Oct 11
First Quarter
Oct 18
Full

Hourly Weather History & Observations

Time (CDT) Temp. Dew Point Humidity Pressure Visibility Wind Dir Wind Speed Gust Speed Precip Events Conditions
12:03 AM 66.2 °F 66.2 °F 100% 29.99 in 10.0 mi WNW 5.8 mph - N/A   Overcast
12:13 AM 68.0 °F 68.0 °F 100% 30.00 in 10.0 mi NW 6.9 mph - N/A   Overcast
12:33 AM 66.2 °F 66.2 °F 100% 29.99 in 10.0 mi NNW 5.8 mph - N/A   Scattered Clouds
12:43 AM 66.2 °F 66.2 °F 100% 30.00 in 10.0 mi North 9.2 mph - N/A   Mostly Cloudy
12:48 AM 66.2 °F 66.2 °F 100% 30.00 in 10.0 mi North 8.1 mph - N/A   Mostly Cloudy
12:53 AM 66.2 °F 66.2 °F 100% 30.00 in 10.0 mi NNE 9.2 mph - N/A   Scattered Clouds
12:58 AM 66.9 °F 66.9 °F 100% 30.00 in 10.0 mi NNE 8.1 mph - N/A   Scattered Clouds
1:58 AM 65.8 °F 65.8 °F 100% 29.96 in 10.0 mi North 13.8 mph - N/A   Clear
2:58 AM 64.2 °F 61.7 °F 91% 29.97 in 10.0 mi NNE 16.1 mph - N/A   Clear
3:58 AM 62.2 °F 58.5 °F 87% 29.98 in 10.0 mi NNE 15.0 mph - N/A   Partly Cloudy
4:58 AM 61.3 °F 57.4 °F 87% 30.02 in 10.0 mi NNE 12.7 mph - N/A   Partly Cloudy
5:58 AM 60.8 °F 56.3 °F 85% 30.05 in 10.0 mi NE 12.7 mph - N/A   Clear
6:58 AM 59.7 °F 55.9 °F 87% 30.05 in 10.0 mi NE 10.4 mph - N/A   Clear
7:58 AM 59.4 °F 55.8 °F 88% 30.07 in 10.0 mi NNE 12.7 mph - N/A   Clear
8:58 AM 60.1 °F 55.9 °F 86% 30.09 in 10.0 mi NNE 15.0 mph - N/A   Clear
9:58 AM 61.9 °F 55.4 °F 79% 30.10 in 10.0 mi NNE 18.4 mph - N/A   Clear
10:58 AM 63.7 °F 53.8 °F 70% 30.10 in 10.0 mi NNE 17.3 mph - N/A   Clear
11:58 AM 66.0 °F 52.0 °F 60% 30.10 in 10.0 mi NNE 17.3 mph 24.2 mph N/A   Clear
12:58 PM 68.7 °F 50.0 °F 51% 30.08 in 10.0 mi NNE 15.0 mph - N/A   Clear
1:45 PM 69.8 °F 50.0 °F 49% 30.07 in 10.0 mi NE 10.4 mph - N/A Rain Rain
1:52 PM 69.8 °F 50.0 °F 49% 30.07 in 10.0 mi NE 11.5 mph - N/A Rain Light Rain
1:54 PM 69.8 °F 50.0 °F 49% 30.07 in 10.0 mi NE 12.7 mph - N/A   Partly Cloudy
1:58 PM 70.0 °F 49.6 °F 48% 30.06 in 9.0 mi NNE 11.5 mph - 0.00 in   Partly Cloudy
2:13 PM 69.8 °F 50.0 °F 49% 30.06 in 1.2 mi North 11.5 mph - N/A   Haze
2:18 PM 69.8 °F 50.0 °F 49% 30.06 in 1.0 mi NE 11.5 mph - N/A   Haze
2:23 PM 69.8 °F 50.0 °F 49% 30.06 in 1.2 mi NE 13.8 mph 17.3 mph N/A   Haze
2:28 PM 69.8 °F 50.0 °F 49% 30.06 in 1.0 mi NE 12.7 mph 17.3 mph N/A   Haze
2:38 PM 69.8 °F 50.0 °F 49% 30.05 in 1.0 mi NE 11.5 mph - N/A   Haze
2:43 PM 69.8 °F 50.0 °F 49% 30.05 in 1.0 mi NNE 12.7 mph - N/A   Haze
2:48 PM 69.8 °F 50.0 °F 49% 30.05 in 1.2 mi NNE 10.4 mph - N/A   Haze
2:58 PM 71.6 °F 50.0 °F 46% 30.04 in 10.0 mi NE 12.7 mph - N/A   Clear
3:01 PM 71.6 °F 50.0 °F 46% 30.05 in 1.0 mi NE 8.1 mph - N/A   Light Drizzle
3:05 PM 71.6 °F 50.0 °F 46% 30.05 in 1.0 mi NE 8.1 mph - N/A   Light Drizzle
3:07 PM 71.6 °F 50.0 °F 46% 30.05 in 1.0 mi NE 9.2 mph - N/A   Light Drizzle
3:10 PM 71.6 °F 50.0 °F 46% 30.04 in 1.2 mi NNE 10.4 mph - N/A   Haze
3:15 PM 71.6 °F 50.0 °F 46% 30.04 in 4.0 mi NNE 11.5 mph - N/A   Haze
3:58 PM 72.7 °F 49.5 °F 44% 30.03 in 10.0 mi NNE 11.5 mph - 0.00 in   Partly Cloudy
4:53 PM 73.4 °F 50.0 °F 44% 30.02 in 2.5 mi NNE 9.2 mph - N/A   Haze
4:58 PM 73.2 °F 48.9 °F 42% 30.01 in 7.0 mi NE 8.1 mph - N/A   Clear
5:08 PM 73.4 °F 48.2 °F 41% 30.02 in 2.5 mi NE 6.9 mph - N/A   Haze
5:18 PM 73.4 °F 50.0 °F 44% 30.02 in 7.0 mi NNE 9.2 mph - N/A   Clear
5:25 PM 73.4 °F 48.2 °F 41% 30.02 in 7.0 mi NE 10.4 mph - N/A   Clear
5:58 PM 72.3 °F 49.3 °F 44% 30.00 in 7.0 mi NNE 8.1 mph - N/A   Clear
6:58 PM 70.7 °F 49.1 °F 46% 30.01 in 7.0 mi NNE 9.2 mph - N/A   Clear
7:58 PM 66.9 °F 50.4 °F 55% 30.02 in 7.0 mi ESE 2.3 mph - N/A   Clear
8:58 PM 66.4 °F 51.1 °F 58% 30.03 in - North 2.3 mph - N/A   Clear
9:58 PM 64.6 °F 53.2 °F 67% 30.04 in - Variable 1.2 mph - N/A   Clear
10:58 PM 64.0 °F 51.8 °F 64% 30.03 in - South 1.2 mph - N/A   Clear
11:58 PM 61.5 °F 54.5 °F 78% 30.03 in - NW 1.2 mph - N/A   Clear